OPS 4988 DEB

Satellite information

Favourite Embed

Satellite Type and Status

DEBRISIN ORBIT

Key statistics

Satellite OPS 4988 DEB at a glance.

Uptime

22148

Days in orbit

Revolutions

≈ 14.0

Per day

Orbit

LEO

Low Earth Orbit

Inclination

70.1

Latest

Satellite identification and parameters

Extended collection of information and parameters for OPS 4988 DEB.

Object identification

Identified? True

Debris? True

Object name: OPS 4988 DEB

International designator: 1965-016K

Object number (NORAD): 12099

Object ID (CCSDS): 12099

Country: UNITED STATES OF AMERICA (US)

Current information (Y/N): Y

RCS size: SMALL

Orbital parameters

Period: 102.512 minutes

Inclination: 70.078 deg

SMA: 7255.671 km

Apoapsis: 892.27 km

Periapsis: 862.802 km

RAAN: 19.0122 deg

Eccentricy: 0.00203072

Argument of periapsis: 224.5771 deg

Mean anomaly: 151.7041 deg

Mean motion: 14.04709141 rev/day

Mean motion (dot): 0.00000432 rev/day2

B* drag term: 0.00030238137 1/REarth

Two-line elements (TLE)

Creation date: Oct. 28, 2025, 2:18 a.m.

Reference frame: TEME

Reference center: EARTH

Epoch: Oct. 27, 2025, 12:31 p.m. UTC

TLE line 0: 0 OPS 4988 DEB

TLE line 1: 1 12099U 65016K 25300.52219782 .00000432 00000-0 30238-3 0 9993

TLE line 2: 2 12099 70.0780 19.0122 0020307 224.5771 151.7041 14.04709141 94351

Live tracking on map

Real-time ground track for satellite OPS 4988 DEB.

In-orbit conjunctions

A list of the most updated potential collisions computed for object OPS 4988 DEB.

Target Orbit TCA Probability of collision Miss distance Type
CZ-6A DEB SSO 2025-09-18 06:30:23 0.0001778463 53.0 (m) DEBRIS
CZ-6A DEB LEO 2024-09-23 10:38:44 0.0008325295 263.0 (m) DEBRIS

Associated space launch

Poppy was the follow-on ELINT system, which succeeded the Grab ELINT satellite system.

OPS 4988 DEB was lifted into orbit during the mission ‘Thor SLV-2 Agena D | Poppy 6A,B,C,D’, on board a Thor SLV-2 Agena D space rocket.

The launch took place on March 9, 1965, 6:29 p.m. from Space Launch Complex 2W.

For more information about the launch, click the button.

Launch to space Thor SLV-2 Agena D | Poppy 6A,B,C,D
Thor SLV-2 Agena D | Poppy 6A,B,C,D

Agency: N/A

Status: Launch Successful

Launch date: March 9, 1965, 6:29 p.m. UTC

Rocket: Thor SLV-2 Agena D

Launch pad: Space Launch Complex 2W

Location: Vandenberg SFB, CA, USA

...

Latest news about this satellite

There are no fresh news available about this satellite. Check back as we update our databases every day.


Newsletter sign-up

Weekly statistics, charts and insights to help you stay on top of the space industry.